TimeEDT,TemperatureF,Dew PointF,Humidity,Sea Level PressureIn,VisibilityMPH,Wind Direction,Wind SpeedMPH,Gust SpeedMPH,PrecipitationIn,Events,Conditions,WindDirDegrees,DateUTC
12:54 AM,64.9,57.9,78,29.94,10.0,SSW,5.8,-,N/A,,Clear,210,2012-10-06 04:54:00
1:54 AM,64.0,57.9,80,29.94,10.0,SSW,5.8,-,N/A,,Clear,200,2012-10-06 05:54:00
2:54 AM,64.0,57.0,78,29.91,10.0,SSW,5.8,-,N/A,,Clear,210,2012-10-06 06:54:00
3:54 AM,63.0,57.0,81,29.90,10.0,South,6.9,-,N/A,,Partly Cloudy,190,2012-10-06 07:54:00
4:54 AM,62.1,57.0,84,29.89,10.0,South,5.8,-,N/A,,Clear,190,2012-10-06 08:54:00
5:54 AM,63.0,57.9,84,29.89,10.0,South,6.9,-,N/A,,Partly Cloudy,190,2012-10-06 09:54:00
6:54 AM,63.0,60.1,90,29.88,10.0,SSW,8.1,-,N/A,,Scattered Clouds,200,2012-10-06 10:54:00
7:54 AM,64.9,61.0,87,29.87,10.0,SSW,9.2,-,N/A,,Scattered Clouds,210,2012-10-06 11:54:00
8:54 AM,68.0,61.0,78,29.86,10.0,SSW,12.7,-,N/A,,Scattered Clouds,210,2012-10-06 12:54:00
9:54 AM,73.0,60.1,64,29.85,10.0,SSW,11.5,20.7,N/A,,Scattered Clouds,210,2012-10-06 13:54:00
10:54 AM,75.0,60.1,60,29.84,10.0,SW,13.8,21.9,N/A,,Mostly Cloudy,220,2012-10-06 14:54:00
11:54 AM,77.0,60.1,56,29.83,10.0,WSW,16.1,-,N/A,,Mostly Cloudy,240,2012-10-06 15:54:00
1:54 PM,77.0,57.9,52,29.81,10.0,WNW,10.4,-,N/A,,Overcast,290,2012-10-06 17:54:00
2:54 PM,75.0,57.9,55,29.82,10.0,WNW,12.7,-,N/A,,Overcast,290,2012-10-06 18:54:00
3:54 PM,73.0,57.0,57,29.85,10.0,WNW,18.4,26.5,N/A,,Overcast,300,2012-10-06 19:54:00
4:54 PM,71.1,52.0,51,29.87,10.0,WNW,13.8,24.2,N/A,,Mostly Cloudy,300,2012-10-06 20:54:00
5:54 PM,66.9,50.0,54,29.90,10.0,NW,17.3,24.2,N/A,,Scattered Clouds,320,2012-10-06 21:54:00
6:54 PM,63.0,46.0,54,29.94,10.0,NW,15.0,-,N/A,,Scattered Clouds,320,2012-10-06 22:54:00
7:54 PM,62.1,45.0,53,29.97,10.0,NW,10.4,-,N/A,,Clear,310,2012-10-06 23:54:00
8:54 PM,60.1,43.0,53,30.00,10.0,NW,6.9,-,N/A,,Clear,310,2012-10-07 00:54:00
9:54 PM,57.9,42.1,56,30.01,10.0,NW,6.9,-,N/A,,Clear,310,2012-10-07 01:54:00
10:54 PM,57.0,41.0,55,30.03,10.0,NW,5.8,-,N/A,,Partly Cloudy,310,2012-10-07 02:54:00
11:54 PM,55.9,42.1,60,30.04,10.0,WNW,6.9,-,N/A,,Partly Cloudy,290,2012-10-07 03:54:00